RYR57CE EGNM-LEGE

Flight info

Callsign RYR57CE
Flight time 2h 12m
Altitude 23000
Route MCT DCT LISTO P18 STAFA L8 HON/N0457F370 UN859 SOPIL DCT BALAN DCT EVPOK DCT NARAK DCT GAI DCT PPG A27 KANIG
Aircraft B738/M-SDE2E3FGHIRWXY/LB1

Departure

Time 2026-04-28 13:48
Airport Leeds Bradford Airport (EGNM)

Arrival

Time 2026-04-28 16:01
Airport Girona-Costa Brava Airport (LEGE)
Time Latitude Longitude Altitude Speed Heading
2026-04-28 13:15 53.86877 -1.65760 664 ft 0 kts
2026-04-28 13:38 53.86876 -1.65760 664 ft 1 kts
2026-04-28 13:38 53.86852 -1.65761 664 ft 4 kts 10°
2026-04-28 13:38 53.86830 -1.65771 661 ft 4 kts 25°
2026-04-28 13:39 53.86811 -1.65797 661 ft 4 kts 66°
2026-04-28 13:39 53.86807 -1.65840 664 ft 4 kts 97°
2026-04-28 13:39 53.86810 -1.65881 661 ft 2 kts 92°
2026-04-28 13:39 53.86810 -1.65883 661 ft 2 kts 91°
2026-04-28 13:42 53.86811 -1.65872 661 ft 3 kts 86°
2026-04-28 13:42 53.86813 -1.65820 661 ft 5 kts 88°
2026-04-28 13:42 53.86815 -1.65758 662 ft 5 kts 84°
2026-04-28 13:42 53.86817 -1.65694 664 ft 6 kts 91°
2026-04-28 13:43 53.86815 -1.65622 663 ft 7 kts 91°
2026-04-28 13:43 53.86814 -1.65540 663 ft 8 kts 91°
2026-04-28 13:43 53.86805 -1.65440 660 ft 10 kts 120°
2026-04-28 13:43 53.86735 -1.65417 660 ft 12 kts 183°
2026-04-28 13:44 53.86647 -1.65425 661 ft 13 kts 183°
2026-04-28 13:44 53.86560 -1.65434 666 ft 12 kts 184°
2026-04-28 13:44 53.86475 -1.65443 669 ft 12 kts 183°
2026-04-28 13:44 53.86424 -1.65448 672 ft 0 kts 183°
2026-04-28 13:45 53.86413 -1.65449 673 ft 5 kts 184°
2026-04-28 13:45 53.86373 -1.65454 676 ft 6 kts 184°
2026-04-28 13:46 53.86327 -1.65458 676 ft 7 kts 182°
2026-04-28 13:46 53.86280 -1.65461 678 ft 7 kts 182°
2026-04-28 13:46 53.86245 -1.65499 678 ft 7 kts 264°
2026-04-28 13:46 53.86264 -1.65553 678 ft 0 kts 315°
2026-04-28 13:48 53.86424 -1.65804 670 ft 77 kts 318°
2026-04-28 13:48 53.87033 -1.66737 683 ft 154 kts 317°
2026-04-28 13:48 53.87900 -1.68028 1350 ft 171 kts 317°
2026-04-28 13:49 53.88690 -1.69456 2233 ft 164 kts 309°
2026-04-28 13:49 53.89412 -1.70898 3001 ft 157 kts 308°
2026-04-28 13:49 53.89845 -1.72573 3489 ft 164 kts 268°
2026-04-28 13:49 53.89779 -1.74545 3980 ft 172 kts 268°
2026-04-28 13:50 53.89744 -1.76596 4594 ft 174 kts 262°
2026-04-28 13:50 53.89472 -1.78605 5235 ft 175 kts 250°
2026-04-28 13:50 53.88974 -1.80498 5849 ft 178 kts 240°
2026-04-28 13:50 53.88283 -1.82255 6477 ft 179 kts 231°
2026-04-28 13:51 53.87472 -1.83905 7053 ft 185 kts 229°
2026-04-28 13:51 53.86568 -1.85712 7104 ft 218 kts 230°
2026-04-28 13:51 53.85538 -1.87790 7137 ft 244 kts 230°
2026-04-28 13:51 53.84510 -1.90212 7117 ft 264 kts 247°
2026-04-28 13:52 53.84200 -1.93288 7132 ft 266 kts 276°
2026-04-28 13:52 53.84738 -1.96229 7139 ft 260 kts 297°
2026-04-28 13:52 53.85592 -1.98896 7143 ft 258 kts 298°
2026-04-28 13:52 53.86335 -2.01773 7155 ft 279 kts 281°
2026-04-28 13:53 53.86465 -2.05086 7143 ft 283 kts 268°
2026-04-28 13:53 53.86421 -2.08404 7139 ft 280 kts 268°
2026-04-28 13:53 53.86386 -2.11671 7133 ft 276 kts 269°
2026-04-28 13:53 53.86052 -2.14849 7127 ft 276 kts 245°
2026-04-28 13:54 53.84934 -2.17410 7137 ft 277 kts 219°
2026-04-28 13:54 53.83220 -2.18903 7359 ft 282 kts 194°
2026-04-28 13:54 53.81286 -2.19407 8146 ft 282 kts 186°
2026-04-28 13:54 53.79327 -2.19703 8926 ft 283 kts 185°
2026-04-28 13:55 53.77355 -2.19966 9619 ft 286 kts 185°
2026-04-28 13:55 53.75376 -2.20233 10271 ft 291 kts 185°
2026-04-28 13:55 53.73287 -2.20523 10488 ft 313 kts 185°
2026-04-28 13:55 53.71044 -2.20847 10662 ft 334 kts 185°
2026-04-28 13:56 53.68665 -2.21198 10863 ft 352 kts 185°
2026-04-28 13:56 53.66190 -2.21569 11339 ft 360 kts 185°
2026-04-28 13:56 53.63678 -2.21949 11988 ft 363 kts 185°
2026-04-28 13:56 53.61154 -2.22333 12661 ft 365 kts 185°
2026-04-28 13:57 53.58613 -2.22721 13301 ft 369 kts 185°
2026-04-28 13:57 53.56042 -2.23113 13936 ft 373 kts 185°
2026-04-28 13:57 53.53453 -2.23508 14583 ft 376 kts 185°
2026-04-28 13:57 53.50831 -2.23907 15238 ft 380 kts 185°
2026-04-28 13:58 53.49080 -2.24173 15667 ft 382 kts 185°
2026-04-28 13:58 53.45558 -2.24708 16487 ft 386 kts 185°
2026-04-28 13:58 53.42868 -2.25116 17079 ft 390 kts 185°
2026-04-28 13:58 53.40145 -2.25528 17660 ft 394 kts 185°
2026-04-28 13:59 53.37408 -2.25937 18229 ft 397 kts 184°
2026-04-28 13:59 53.34639 -2.25951 18771 ft 401 kts 175°
2026-04-28 13:59 53.32790 -2.25510 19139 ft 403 kts 170°
2026-04-28 13:59 53.30002 -2.24649 19683 ft 406 kts 169°
2026-04-28 14:00 53.27242 -2.23768 20197 ft 409 kts 169°
2026-04-28 14:00 53.24427 -2.22890 20698 ft 413 kts 170°
2026-04-28 14:00 53.21590 -2.22035 21182 ft 416 kts 170°
2026-04-28 14:00 53.18731 -2.21193 21655 ft 419 kts 170°
2026-04-28 14:01 53.15841 -2.20364 22107 ft 422 kts 172°
2026-04-28 14:01 53.12909 -2.20015 22537 ft 424 kts 182°
2026-04-28 14:01 53.09950 -2.20422 22954 ft 427 kts 186°
2026-04-28 14:01 53.07002 -2.20973 22977 ft 424 kts 186°
2026-04-28 14:02 53.04105 -2.21482 22999 ft 424 kts 186°
2026-04-28 14:02 53.01119 -2.21963 23005 ft 425 kts 185°
2026-04-28 14:02 52.98202 -2.22412 23003 ft 425 kts 185°
2026-04-28 14:02 52.95258 -2.22869 23004 ft 425 kts 185°
2026-04-28 14:03 52.92304 -2.23330 23002 ft 425 kts 186°
2026-04-28 14:03 52.89345 -2.23709 22995 ft 425 kts 180°
2026-04-28 14:03 52.86401 -2.23110 23004 ft 425 kts 166°
2026-04-28 14:03 52.83628 -2.21427 23004 ft 426 kts 153°
2026-04-28 14:04 52.81161 -2.18835 23011 ft 426 kts 145°
2026-04-28 14:04 52.78745 -2.15982 23000 ft 426 kts 144°
2026-04-28 14:04 52.76334 -2.13103 22995 ft 426 kts 144°
2026-04-28 14:04 52.73810 -2.10547 22985 ft 426 kts 158°
2026-04-28 14:05 52.70963 -2.09323 23003 ft 425 kts 175°
2026-04-28 14:05 52.68013 -2.09591 23007 ft 425 kts 192°
2026-04-28 14:05 52.65174 -2.10885 23008 ft 425 kts 198°
2026-04-28 14:05 52.62372 -2.12443 22999 ft 425 kts 199°
2026-04-28 14:06 52.59576 -2.14071 22994 ft 425 kts 200°
2026-04-28 14:06 52.56791 -2.15709 22995 ft 425 kts 200°
2026-04-28 14:06 52.54008 -2.17356 22996 ft 425 kts 200°
2026-04-28 14:06 52.51261 -2.18986 22998 ft 425 kts 200°
2026-04-28 14:07 52.48479 -2.20639 23000 ft 425 kts 200°
2026-04-28 14:07 52.45691 -2.22296 23002 ft 424 kts 200°
2026-04-28 14:07 52.42909 -2.23949 23001 ft 424 kts 200°
2026-04-28 14:07 52.40132 -2.25599 23001 ft 424 kts 200°
2026-04-28 14:08 52.37314 -2.26992 22980 ft 424 kts 187°
2026-04-28 14:08 52.34414 -2.26774 23006 ft 424 kts 166°
2026-04-28 14:08 52.31739 -2.24787 23012 ft 425 kts 145°
2026-04-28 14:08 52.29524 -2.21587 23008 ft 425 kts 134°
2026-04-28 14:09 52.27486 -2.18081 23008 ft 426 kts 134°
2026-04-28 14:09 52.25427 -2.14581 22996 ft 427 kts 134°
2026-04-28 14:09 52.23354 -2.11101 22994 ft 427 kts 135°
2026-04-28 14:09 52.21272 -2.07640 22995 ft 427 kts 135°
2026-04-28 14:10 52.19201 -2.04226 22997 ft 427 kts 135°
2026-04-28 14:10 52.17104 -2.00783 22999 ft 427 kts 135°
2026-04-28 14:10 52.15110 -1.97520 23000 ft 427 kts 135°
2026-04-28 14:10 52.13008 -1.94084 23001 ft 427 kts 135°
2026-04-28 14:11 52.10911 -1.90662 23001 ft 427 kts 135°
2026-04-28 14:11 52.08811 -1.87240 23001 ft 427 kts 135°
2026-04-28 14:11 52.06702 -1.83807 23038 ft 432 kts 135°
2026-04-28 14:11 52.04556 -1.80348 24095 ft 431 kts 127°
2026-04-28 14:12 52.02468 -1.77001 25152 ft 413 kts 126°
2026-04-28 14:12 52.00471 -1.73777 26263 ft 396 kts 125°
2026-04-28 14:12 51.98553 -1.70668 27275 ft 383 kts 124°
2026-04-28 14:12 51.96690 -1.67645 28142 ft 374 kts 124°
2026-04-28 14:13 51.94887 -1.64713 28820 ft 369 kts 123°
2026-04-28 14:13 51.93074 -1.61767 29352 ft 368 kts 123°
2026-04-28 14:13 51.91261 -1.58826 29820 ft 369 kts 123°
2026-04-28 14:13 51.89443 -1.55889 30325 ft 368 kts 123°
2026-04-28 14:14 51.87630 -1.52972 30788 ft 366 kts 124°
2026-04-28 14:14 51.85814 -1.50051 31079 ft 369 kts 124°
2026-04-28 14:14 51.84006 -1.47144 31356 ft 372 kts 125°
2026-04-28 14:14 51.82167 -1.44196 31700 ft 373 kts 125°
2026-04-28 14:15 51.80315 -1.41235 32032 ft 374 kts 126°
2026-04-28 14:15 51.78364 -1.38387 32313 ft 384 kts 134°
2026-04-28 14:15 51.76089 -1.36011 32621 ft 395 kts 142°
2026-04-28 14:15 51.73609 -1.34012 32972 ft 397 kts 144°
2026-04-28 14:16 51.71158 -1.31972 33297 ft 396 kts 143°
2026-04-28 14:16 51.68725 -1.29881 33600 ft 396 kts 143°
2026-04-28 14:16 51.66323 -1.27803 33905 ft 397 kts 144°
2026-04-28 14:16 51.63882 -1.25697 34222 ft 397 kts 144°
2026-04-28 14:17 51.61447 -1.23610 34502 ft 397 kts 145°
2026-04-28 14:17 51.58994 -1.21519 34735 ft 398 kts 145°
2026-04-28 14:17 51.56544 -1.19439 34985 ft 399 kts 146°
2026-04-28 14:17 51.54083 -1.17358 35246 ft 398 kts 146°
2026-04-28 14:18 51.51662 -1.15316 35498 ft 398 kts 146°
2026-04-28 14:18 51.49198 -1.13240 35717 ft 399 kts 146°
2026-04-28 14:18 51.46729 -1.11163 35949 ft 400 kts 147°
2026-04-28 14:18 51.44266 -1.09095 36193 ft 399 kts 147°
2026-04-28 14:19 51.41799 -1.07026 36400 ft 400 kts 147°
2026-04-28 14:19 51.39326 -1.04954 36582 ft 400 kts 147°
2026-04-28 14:19 51.36854 -1.02886 36801 ft 400 kts 147°
2026-04-28 14:19 51.34390 -1.00827 37019 ft 400 kts 148°
2026-04-28 14:20 51.31921 -0.98765 37209 ft 400 kts 148°
2026-04-28 14:20 51.29437 -0.96693 37263 ft 404 kts 148°
2026-04-28 14:20 51.24421 -0.92515 37284 ft 412 kts 148°
2026-04-28 14:21 51.19286 -0.88250 37277 ft 417 kts 148°
2026-04-28 14:21 51.14106 -0.83964 37275 ft 420 kts 149°
2026-04-28 14:22 51.08955 -0.79712 37260 ft 417 kts 149°
2026-04-28 14:22 51.03859 -0.75520 37254 ft 408 kts 149°
2026-04-28 14:23 50.98805 -0.71365 37247 ft 409 kts 149°
2026-04-28 14:23 50.93757 -0.67225 37235 ft 409 kts 149°
2026-04-28 14:24 50.88746 -0.63126 37232 ft 410 kts 149°
2026-04-28 14:24 50.83702 -0.59010 37228 ft 410 kts 149°
2026-04-28 14:25 50.78611 -0.54867 37211 ft 411 kts 149°
2026-04-28 14:25 50.73505 -0.50722 37210 ft 412 kts 149°
2026-04-28 14:26 50.68392 -0.46580 37212 ft 413 kts 149°
2026-04-28 14:26 50.63300 -0.42467 37215 ft 413 kts 150°
2026-04-28 14:27 50.58182 -0.38344 37217 ft 413 kts 150°
2026-04-28 14:27 50.53050 -0.34217 37211 ft 414 kts 150°
2026-04-28 14:28 50.47920 -0.30104 37211 ft 413 kts 150°
2026-04-28 14:28 50.42792 -0.26002 37204 ft 413 kts 150°
2026-04-28 14:29 50.37650 -0.21899 37216 ft 418 kts 150°
2026-04-28 14:29 50.32438 -0.17747 37210 ft 426 kts 150°
2026-04-28 14:30 50.27094 -0.13502 37207 ft 434 kts 151°
2026-04-28 14:30 50.21655 -0.09196 37202 ft 442 kts 151°
2026-04-28 14:31 50.16129 -0.04829 37196 ft 448 kts 152°
2026-04-28 14:31 50.10527 -0.00477 37181 ft 450 kts 155°
2026-04-28 14:32 50.04554 0.02322 37194 ft 453 kts 165°
2026-04-28 14:32 49.98367 0.04634 37190 ft 459 kts 165°
2026-04-28 14:33 49.92163 0.07002 37182 ft 462 kts 165°
2026-04-28 14:33 49.85901 0.09445 37170 ft 464 kts 165°
2026-04-28 14:34 49.76534 0.13101 37151 ft 458 kts 165°
2026-04-28 14:35 49.70397 0.15486 37158 ft 453 kts 166°
2026-04-28 14:35 49.64322 0.17880 37137 ft 452 kts 165°
2026-04-28 14:36 49.58229 0.20363 37133 ft 452 kts 165°
2026-04-28 14:36 49.52144 0.22838 37130 ft 452 kts 165°
2026-04-28 14:37 49.46093 0.25281 37131 ft 453 kts 166°
2026-04-28 14:37 49.39981 0.27738 37132 ft 454 kts 166°
2026-04-28 14:38 49.33857 0.30195 37131 ft 455 kts 166°
2026-04-28 14:38 49.27732 0.32680 37128 ft 456 kts 165°
2026-04-28 14:39 49.21642 0.35252 37119 ft 456 kts 165°
2026-04-28 14:39 49.15524 0.37840 37108 ft 456 kts 165°
2026-04-28 14:40 49.09396 0.40412 37098 ft 456 kts 166°
2026-04-28 14:40 49.03268 0.42970 37080 ft 456 kts 166°
2026-04-28 14:41 48.97148 0.45519 37081 ft 455 kts 166°
2026-04-28 14:41 48.91079 0.48040 37074 ft 454 kts 166°
2026-04-28 14:42 48.84965 0.50574 37068 ft 453 kts 166°
2026-04-28 14:42 48.78887 0.53087 37078 ft 452 kts 167°
2026-04-28 14:43 48.72803 0.55497 37072 ft 451 kts 168°
2026-04-28 14:43 48.67732 0.57458 37067 ft 451 kts 167°
2026-04-28 14:44 48.60668 0.60203 37063 ft 450 kts 167°
2026-04-28 14:44 48.54603 0.62565 37068 ft 450 kts 168°
2026-04-28 14:45 48.48546 0.64957 37049 ft 450 kts 167°
2026-04-28 14:45 48.43511 0.67013 37053 ft 450 kts 167°
2026-04-28 14:46 48.37454 0.69485 37050 ft 450 kts 167°
2026-04-28 14:46 48.31392 0.71941 37047 ft 451 kts 167°
2026-04-28 14:47 48.25363 0.74373 37039 ft 451 kts 167°
2026-04-28 14:47 48.19300 0.76778 37049 ft 450 kts 168°
2026-04-28 14:48 48.13223 0.79162 37043 ft 450 kts 168°
2026-04-28 14:48 48.07158 0.81539 37043 ft 450 kts 168°
2026-04-28 14:49 48.01138 0.83897 37037 ft 449 kts 169°
2026-04-28 14:49 47.95079 0.86266 37040 ft 448 kts 169°
2026-04-28 14:50 47.89037 0.88623 37040 ft 447 kts 169°
2026-04-28 14:50 47.83055 0.90949 37035 ft 447 kts 169°
2026-04-28 14:51 47.77027 0.93284 37038 ft 446 kts 169°
2026-04-28 14:51 47.71023 0.95602 37028 ft 445 kts 170°
2026-04-28 14:52 47.65030 0.97913 37030 ft 445 kts 170°
2026-04-28 14:52 47.59072 1.00204 37025 ft 445 kts 170°
2026-04-28 14:53 47.53077 1.02505 37033 ft 445 kts 170°
2026-04-28 14:53 47.47073 1.04805 37027 ft 445 kts 170°
2026-04-28 14:54 47.41054 1.06475 37016 ft 438 kts 183°
2026-04-28 14:54 47.34989 1.06333 37025 ft 436 kts 186°
2026-04-28 14:55 47.28898 1.06108 37025 ft 437 kts 186°
2026-04-28 14:55 47.22842 1.05945 37017 ft 438 kts 185°
2026-04-28 14:56 47.16728 1.05810 37012 ft 438 kts 186°
2026-04-28 14:56 47.10621 1.05677 37014 ft 438 kts 186°
2026-04-28 14:57 47.04513 1.05542 37005 ft 439 kts 186°
2026-04-28 14:57 46.98416 1.05356 36999 ft 438 kts 186°
2026-04-28 14:58 46.92368 1.05077 36996 ft 437 kts 187°
2026-04-28 14:58 46.86279 1.04796 36991 ft 437 kts 186°
2026-04-28 14:59 46.80204 1.04528 36986 ft 436 kts 186°
2026-04-28 14:59 46.74133 1.04267 36987 ft 436 kts 186°
2026-04-28 15:00 46.68070 1.04006 36980 ft 435 kts 186°
2026-04-28 15:00 46.62051 1.03748 36983 ft 435 kts 186°
2026-04-28 15:01 46.55989 1.03488 36984 ft 434 kts 186°
2026-04-28 15:01 46.49922 1.03758 36976 ft 441 kts 174°
2026-04-28 15:02 46.43943 1.05732 36984 ft 444 kts 172°
2026-04-28 15:02 46.37934 1.07827 36989 ft 443 kts 172°
2026-04-28 15:03 46.31914 1.09876 36984 ft 443 kts 172°
2026-04-28 15:03 46.25909 1.11882 36983 ft 443 kts 172°
2026-04-28 15:04 46.19937 1.13863 36973 ft 443 kts 172°
2026-04-28 15:04 46.13927 1.15852 36977 ft 443 kts 172°
2026-04-28 15:05 46.07906 1.17841 36981 ft 443 kts 172°
2026-04-28 15:05 46.01883 1.19827 36974 ft 443 kts 172°
2026-04-28 15:06 45.95876 1.21804 36962 ft 443 kts 172°
2026-04-28 15:06 45.89864 1.23779 36964 ft 443 kts 172°
2026-04-28 15:07 45.83889 1.25736 36960 ft 443 kts 172°
2026-04-28 15:07 45.77879 1.27701 36965 ft 443 kts 172°
2026-04-28 15:08 45.71873 1.29659 36968 ft 443 kts 172°
2026-04-28 15:08 45.65848 1.31620 36976 ft 443 kts 172°
2026-04-28 15:09 45.59837 1.33573 36970 ft 443 kts 172°
2026-04-28 15:09 45.53820 1.35523 36984 ft 443 kts 172°
2026-04-28 15:10 45.47799 1.37470 36980 ft 444 kts 172°
2026-04-28 15:10 45.41817 1.39399 36986 ft 444 kts 172°
2026-04-28 15:11 45.35785 1.41341 36992 ft 444 kts 172°
2026-04-28 15:11 45.29746 1.43281 36997 ft 444 kts 172°
2026-04-28 15:12 45.23695 1.45221 36988 ft 445 kts 172°
2026-04-28 15:12 45.17673 1.47149 36999 ft 445 kts 172°
2026-04-28 15:13 45.11619 1.49082 36984 ft 446 kts 172°
2026-04-28 15:13 45.05567 1.51010 36983 ft 446 kts 172°
2026-04-28 15:14 44.99505 1.52938 36994 ft 446 kts 172°
2026-04-28 15:14 44.93496 1.54845 36991 ft 445 kts 172°
2026-04-28 15:15 44.87450 1.56759 36994 ft 445 kts 172°
2026-04-28 15:15 44.81420 1.58664 36999 ft 444 kts 173°
2026-04-28 15:16 44.75373 1.60570 37004 ft 443 kts 173°
2026-04-28 15:16 44.69363 1.62461 36998 ft 442 kts 172°
2026-04-28 15:17 44.63397 1.64333 37001 ft 441 kts 173°
2026-04-28 15:17 44.57410 1.66208 36999 ft 440 kts 173°
2026-04-28 15:18 44.51417 1.68081 37003 ft 440 kts 173°
2026-04-28 15:18 44.45479 1.69933 36997 ft 440 kts 173°
2026-04-28 15:19 44.39500 1.71795 36989 ft 439 kts 172°
2026-04-28 15:19 44.33531 1.73649 36988 ft 439 kts 173°
2026-04-28 15:20 44.27562 1.75419 36987 ft 437 kts 175°
2026-04-28 15:20 44.21568 1.76737 36983 ft 435 kts 176°
2026-04-28 15:21 44.15578 1.77985 36987 ft 435 kts 176°
2026-04-28 15:21 44.09626 1.79276 36979 ft 436 kts 176°
2026-04-28 15:22 44.03626 1.80597 36978 ft 435 kts 176°
2026-04-28 15:22 43.97648 1.82006 36976 ft 438 kts 170°
2026-04-28 15:23 43.91952 1.85268 36966 ft 450 kts 153°
2026-04-28 15:23 43.86708 1.89931 36966 ft 451 kts 152°
2026-04-28 15:24 43.81424 1.94703 36966 ft 451 kts 152°
2026-04-28 15:24 43.76246 1.99314 36615 ft 456 kts 152°
2026-04-28 15:24 43.73567 2.01678 36119 ft 455 kts 152°
2026-04-28 15:25 43.70895 2.04029 35508 ft 454 kts 152°
2026-04-28 15:25 43.68229 2.06370 34861 ft 454 kts 152°
2026-04-28 15:25 43.65592 2.08681 34220 ft 454 kts 151°
2026-04-28 15:25 43.62894 2.11044 33481 ft 455 kts 151°
2026-04-28 15:26 43.60253 2.13354 32759 ft 455 kts 151°
2026-04-28 15:26 43.57602 2.15673 32315 ft 449 kts 151°
2026-04-28 15:26 43.54977 2.17968 31800 ft 445 kts 151°
2026-04-28 15:26 43.52369 2.20245 31309 ft 441 kts 151°
2026-04-28 15:27 43.49781 2.22501 30837 ft 437 kts 151°
2026-04-28 15:27 43.47216 2.24734 30365 ft 434 kts 151°
2026-04-28 15:27 43.44677 2.26943 29884 ft 430 kts 151°
2026-04-28 15:27 43.42149 2.29139 29341 ft 427 kts 151°
2026-04-28 15:28 43.39674 2.31288 28866 ft 422 kts 151°
2026-04-28 15:28 43.37180 2.33451 28363 ft 418 kts 151°
2026-04-28 15:28 43.34762 2.35546 27900 ft 413 kts 151°
2026-04-28 15:28 43.32338 2.37644 27417 ft 410 kts 151°
2026-04-28 15:29 43.29931 2.39725 26944 ft 406 kts 151°
2026-04-28 15:29 43.27549 2.41783 26482 ft 403 kts 151°
2026-04-28 15:29 43.25187 2.43821 26022 ft 400 kts 151°
2026-04-28 15:29 43.22838 2.45846 25568 ft 397 kts 151°
2026-04-28 15:30 43.20511 2.47850 25116 ft 394 kts 151°
2026-04-28 15:30 43.18189 2.49849 24668 ft 392 kts 151°
2026-04-28 15:30 43.15889 2.51827 24219 ft 389 kts 151°
2026-04-28 15:30 43.13597 2.53796 23766 ft 388 kts 151°
2026-04-28 15:31 43.11314 2.55754 23266 ft 386 kts 151°
2026-04-28 15:31 43.09073 2.57676 22777 ft 384 kts 151°
2026-04-28 15:31 43.06815 2.59612 22308 ft 381 kts 151°
2026-04-28 15:31 43.04574 2.61530 21846 ft 378 kts 151°
2026-04-28 15:32 43.02353 2.63431 21398 ft 375 kts 151°
2026-04-28 15:32 43.00891 2.64681 21111 ft 373 kts 151°
2026-04-28 15:32 42.97967 2.67179 20540 ft 369 kts 151°
2026-04-28 15:32 42.96523 2.68412 20251 ft 367 kts 151°
2026-04-28 15:33 42.94359 2.70256 19825 ft 365 kts 151°
2026-04-28 15:33 42.92204 2.72093 19393 ft 364 kts 151°
2026-04-28 15:33 42.90067 2.73912 18964 ft 362 kts 151°
2026-04-28 15:33 42.87930 2.75730 18537 ft 361 kts 151°
2026-04-28 15:34 42.85801 2.77538 18059 ft 361 kts 151°
2026-04-28 15:34 42.83683 2.79338 17595 ft 363 kts 151°
2026-04-28 15:34 42.81528 2.81167 17137 ft 360 kts 151°
2026-04-28 15:34 42.79408 2.82965 16698 ft 356 kts 150°
2026-04-28 15:35 42.77341 2.84717 16271 ft 353 kts 150°
2026-04-28 15:35 42.73014 2.87658 15430 ft 344 kts 164°
2026-04-28 15:35 42.70735 2.88633 15024 ft 341 kts 165°
2026-04-28 15:36 42.68474 2.89573 14611 ft 340 kts 165°
2026-04-28 15:36 42.66209 2.90519 14202 ft 338 kts 165°
2026-04-28 15:36 42.63963 2.91466 13775 ft 337 kts 165°
2026-04-28 15:36 42.61722 2.92420 13314 ft 335 kts 164°
2026-04-28 15:37 42.59530 2.93358 12879 ft 333 kts 164°
2026-04-28 15:37 42.57325 2.94303 12457 ft 331 kts 164°
2026-04-28 15:37 42.55136 2.95243 12044 ft 328 kts 165°
2026-04-28 15:37 42.52968 2.96172 11648 ft 327 kts 164°
2026-04-28 15:38 42.50799 2.97100 11241 ft 325 kts 165°
2026-04-28 15:38 42.48623 2.97893 10814 ft 321 kts 175°
2026-04-28 15:38 42.46427 2.97743 10556 ft 312 kts 194°
2026-04-28 15:38 42.44368 2.96994 10412 ft 302 kts 197°
2026-04-28 15:39 42.42381 2.96201 10273 ft 293 kts 198°
2026-04-28 15:39 42.40458 2.95426 10146 ft 282 kts 197°
2026-04-28 15:39 42.38632 2.94700 10050 ft 272 kts 197°
2026-04-28 15:39 42.36833 2.93990 9836 ft 268 kts 197°
2026-04-28 15:40 42.35048 2.93290 9542 ft 264 kts 197°
2026-04-28 15:40 42.33292 2.92612 9246 ft 260 kts 197°
2026-04-28 15:40 42.31555 2.91938 8989 ft 259 kts 197°
2026-04-28 15:40 42.29816 2.91265 8706 ft 261 kts 197°
2026-04-28 15:41 42.28065 2.90588 8401 ft 263 kts 197°
2026-04-28 15:41 42.26307 2.89912 8093 ft 261 kts 197°
2026-04-28 15:41 42.24606 2.89255 7721 ft 261 kts 197°
2026-04-28 15:41 42.22823 2.88569 7262 ft 266 kts 197°
2026-04-28 15:42 42.21029 2.87884 6795 ft 269 kts 197°
2026-04-28 15:42 42.19202 2.87179 6274 ft 276 kts 197°
2026-04-28 15:42 42.17392 2.86488 6110 ft 265 kts 197°
2026-04-28 15:42 42.15647 2.85818 5990 ft 253 kts 196°
2026-04-28 15:43 42.14011 2.85193 5952 ft 235 kts 197°
2026-04-28 15:43 42.12489 2.84605 5926 ft 225 kts 197°
2026-04-28 15:43 42.11031 2.84032 5955 ft 215 kts 197°
2026-04-28 15:43 42.09619 2.83476 5996 ft 208 kts 197°
2026-04-28 15:44 42.08240 2.82936 5910 ft 205 kts 197°
2026-04-28 15:44 42.06849 2.82391 5800 ft 201 kts 196°
2026-04-28 15:44 42.05517 2.81894 5543 ft 197 kts 194°
2026-04-28 15:44 42.04238 2.81437 5441 ft 185 kts 193°
2026-04-28 15:45 42.03024 2.81005 5286 ft 174 kts 196°
2026-04-28 15:45 42.01891 2.80566 4970 ft 168 kts 195°
2026-04-28 15:45 42.00787 2.80131 4588 ft 162 kts 195°
2026-04-28 15:45 41.99763 2.79726 4313 ft 148 kts 195°
2026-04-28 15:46 41.98730 2.79305 3817 ft 160 kts 196°
2026-04-28 15:46 41.97651 2.78900 3410 ft 158 kts 193°
2026-04-28 15:46 41.96580 2.78471 2955 ft 161 kts 197°
2026-04-28 15:46 41.95543 2.77978 2625 ft 156 kts 200°
2026-04-28 15:47 41.94651 2.77481 2709 ft 132 kts 199°
2026-04-28 15:47 41.93711 2.77050 2279 ft 156 kts 191°
2026-04-28 15:47 41.92633 2.76759 2080 ft 162 kts 192°
2026-04-28 15:47 41.91515 2.76423 1820 ft 161 kts 191°
2026-04-28 15:48 41.90406 2.76081 2240 ft 171 kts 192°
2026-04-28 15:48 41.89106 2.75698 2840 ft 205 kts 190°
2026-04-28 15:48 41.87723 2.75284 3943 ft 196 kts 189°
2026-04-28 15:48 41.86383 2.74890 4657 ft 202 kts 194°
2026-04-28 15:49 41.85005 2.74602 4928 ft 203 kts 186°
2026-04-28 15:49 41.83603 2.74692 4934 ft 203 kts 163°
2026-04-28 15:49 41.82432 2.75677 4943 ft 204 kts 131°
2026-04-28 15:49 41.81826 2.77476 5005 ft 224 kts 105°
2026-04-28 15:50 41.81529 2.79525 4977 ft 226 kts 103°
2026-04-28 15:50 41.81261 2.81610 4968 ft 228 kts 102°
2026-04-28 15:50 41.80994 2.83727 4967 ft 232 kts 102°
2026-04-28 15:50 41.80711 2.85862 4940 ft 237 kts 91°
2026-04-28 15:51 41.81212 2.87935 4999 ft 237 kts 56°
2026-04-28 15:51 41.82437 2.89423 4996 ft 241 kts 30°
2026-04-28 15:51 41.83978 2.90373 4976 ft 244 kts 22°
2026-04-28 15:51 41.85568 2.91221 4978 ft 246 kts 22°
2026-04-28 15:52 41.87151 2.92066 4978 ft 250 kts 22°
2026-04-28 15:52 41.88772 2.92922 5029 ft 250 kts 21°
2026-04-28 15:52 41.90411 2.93786 4888 ft 252 kts 22°
2026-04-28 15:52 41.91996 2.94619 4918 ft 237 kts 22°
2026-04-28 15:53 41.93502 2.95406 4964 ft 230 kts 21°
2026-04-28 15:53 41.95011 2.96200 4780 ft 233 kts 22°
2026-04-28 15:53 41.96515 2.97002 4558 ft 234 kts 22°
2026-04-28 15:53 41.98031 2.97801 4234 ft 237 kts 22°
2026-04-28 15:54 41.99570 2.98612 4066 ft 238 kts 21°
2026-04-28 15:54 42.01091 2.99412 4040 ft 231 kts 22°
2026-04-28 15:54 42.02594 3.00205 3992 ft 232 kts 22°
2026-04-28 15:54 42.04132 3.00857 4033 ft 235 kts
2026-04-28 15:55 42.05768 3.00678 3984 ft 239 kts 340°
2026-04-28 15:55 42.07224 2.99660 4000 ft 234 kts 324°
2026-04-28 15:55 42.08572 2.98427 3905 ft 233 kts 321°
2026-04-28 15:55 42.09873 2.97125 3700 ft 235 kts 322°
2026-04-28 15:56 42.11201 2.95829 3561 ft 234 kts 319°
2026-04-28 15:56 42.12237 2.94177 3500 ft 230 kts 293°
2026-04-28 15:56 42.12507 2.92148 3440 ft 221 kts 253°
2026-04-28 15:56 42.11777 2.90413 3479 ft 215 kts 225°
2026-04-28 15:57 42.10709 2.89008 3452 ft 214 kts 220°
2026-04-28 15:57 42.09597 2.87699 3514 ft 212 kts 218°
2026-04-28 15:57 42.08434 2.86407 3525 ft 220 kts 217°
2026-04-28 15:57 42.07211 2.85120 3528 ft 224 kts 215°
2026-04-28 15:58 42.05944 2.83867 3508 ft 226 kts 213°
2026-04-28 15:58 42.04632 2.82687 3477 ft 226 kts 210°
2026-04-28 15:58 42.03227 2.81625 2993 ft 242 kts 206°
2026-04-28 15:58 42.01744 2.80609 2586 ft 238 kts 202°
2026-04-28 15:59 42.00248 2.79883 2293 ft 220 kts 194°
2026-04-28 15:59 41.99278 2.79526 2125 ft 215 kts 193°
2026-04-28 15:59 41.97391 2.78800 1763 ft 204 kts 192°
2026-04-28 15:59 41.96037 2.78301 1428 ft 197 kts 194°
2026-04-28 16:00 41.94776 2.77824 1184 ft 182 kts 194°
2026-04-28 16:00 41.93609 2.77375 897 ft 165 kts 192°
2026-04-28 16:00 41.92549 2.76995 757 ft 152 kts 196°
2026-04-28 16:00 41.91573 2.76613 579 ft 139 kts 194°
2026-04-28 16:01 41.90687 2.76281 460 ft 122 kts 196°
2026-04-28 16:01 41.90017 2.76027 435 ft 79 kts 195°
2026-04-28 16:01 41.89637 2.75882 413 ft 35 kts 196°
2026-04-28 16:01 41.89543 2.75871 414 ft 0 kts 149°
2026-04-28 16:02 41.89542 2.75872 413 ft 0 kts 148°
2026-04-28 16:03 41.89528 2.75890 405 ft 7 kts 132°
2026-04-28 16:03 41.89526 2.75959 409 ft 9 kts 57°
2026-04-28 16:03 41.89561 2.76025 410 ft 9 kts 59°
2026-04-28 16:03 41.89594 2.76089 412 ft 8 kts 40°
2026-04-28 16:04 41.89647 2.76117 407 ft 8 kts 17°
2026-04-28 16:04 41.89700 2.76135 417 ft 8 kts 15°
2026-04-28 16:04 41.89753 2.76155 416 ft 9 kts 17°
2026-04-28 16:04 41.89819 2.76182 414 ft 11 kts 17°
2026-04-28 16:05 41.89873 2.76203 393 ft 0 kts 15°
2026-04-28 16:05 41.89902 2.76220 426 ft 7 kts 34°
2026-04-28 16:06 41.89902 2.76289 417 ft 11 kts 107°
2026-04-28 16:06 41.89889 2.76344 417 ft 3 kts 107°
2026-04-28 16:06 41.89849 2.76393 418 ft 11 kts 169°
2026-04-28 16:06 41.89817 2.76385 415 ft 7 kts 194°
2026-04-28 16:07 41.89787 2.76375 419 ft 10 kts 194°
2026-04-28 16:07 41.89747 2.76367 418 ft 4 kts 151°
2026-04-28 16:07 41.89736 2.76408 417 ft 2 kts 105°
2026-04-28 16:08 41.89732 2.76432 417 ft 0 kts 105°
2026-04-28 16:08 41.89731 2.76432 407 ft 0 kts 106°
2026-04-28 16:08 41.89731 2.76433 407 ft 0 kts 106°